Imperial, NE

8:48 AM MST on February 26, 2017 (GMT -0700)
Imperial Municipal

Weather History for KIML - June, 2012

Change the Weather History Date:

Thursday, June 28, 2012

  Actual Average Record
Temperature  
Mean Temperature 83 °F 74 °F  
Max Temperature 102 °F 88 °F 105 °F (1963)
Min Temperature 63 °F 59 °F 44 °F (1985)
Degree Days  
Heating Degree Days 0 0  
Month to date heating degree days 2 34  
Since 1 June heating degree days 2 34  
Cooling Degree Days 18 9  
Month to date cooling degree days 336 166  
Year to date cooling degree days 413 210  
Since 1 June cooling degree days 336 166  
Growing Degree Days 32 (Base 50)    
Moisture  
Dew Point 58 °F    
Average Humidity 53    
Maximum Humidity 87    
Minimum Humidity 19    
Precipitation  
Precipitation 0.07 in 0.08 in 1.15 in (1999)
Sea Level Pressure  
Sea Level Pressure 29.89 in    
Wind  
Wind Speed 8 mph (SE)    
Max Wind Speed 43 mph    
Max Gust Speed 61 mph    
Visibility 10 miles    
Events Rain , Thunderstorm    
T = Trace of Precipitation, MM = Missing Value Source: NWS Daily Summary

Daily Weather History Graph

Daily Weather History Graph

Search for Another Location

Airport or City:

Trip Planner

Search our weather history database for the weather conditions in past years. The results will help you decide how hot, cold, wet, or windy it might be!

Date:

Astronomy

Jun. 28, 2012 Rise Set
Actual Time 5:18 AM MDT 8:21 PM MDT
Civil Twilight 4:45 AM MDT 8:54 PM MDT
Nautical Twilight 4:03 AM MDT 9:36 PM MDT
Astronomical Twilight 3:13 AM MDT 10:25 PM MDT
Moon 2:57 PM MDT (6/28) 12:53 AM MDT (6/28)
Length of Visible Light 16h 08m
Length of Day
15h 02m
Waxing Gibbous, 68% of the Moon is Illuminated
Jun 28
Waxing Gibbous
Jul 3
Full
Jul 10
Last Quarter
Jul 18
New
Jul 26
First Quarter

Hourly Weather History & Observations

Time (MDT) Temp. Heat Index Dew Point Humidity Pressure Visibility Wind Dir Wind Speed Gust Speed Precip Events Conditions
12:53 AM 73.0 °F - 61.0 °F 66% 29.84 in 10.0 mi WSW 4.6 mph - N/A   Clear
1:53 AM 73.0 °F - 57.9 °F 59% 29.85 in 10.0 mi WNW 4.6 mph - N/A   Clear
2:53 AM 66.9 °F - 59.0 °F 76% 29.87 in 10.0 mi Calm Calm - N/A   Clear
3:53 AM 63.0 °F - 57.9 °F 84% 29.88 in 10.0 mi South 3.5 mph - N/A   Clear
4:53 AM 64.9 °F - 59.0 °F 81% 29.87 in 10.0 mi Calm Calm - N/A   Clear
5:53 AM 64.0 °F - 60.1 °F 87% 29.92 in 10.0 mi NNW 3.5 mph - N/A   Clear
6:53 AM 70.0 °F - 61.0 °F 73% 29.93 in 10.0 mi North 3.5 mph - N/A   Clear
7:53 AM 77.0 °F - 61.0 °F 58% 29.94 in 10.0 mi Calm Calm - N/A   Clear
8:53 AM 84.0 °F 83.5 °F 57.9 °F 41% 29.93 in 10.0 mi Calm Calm - N/A   Clear
9:53 AM 84.9 °F 83.9 °F 57.0 °F 38% 29.94 in 10.0 mi SE 5.8 mph - N/A   Clear
10:53 AM 90.0 °F 88.6 °F 57.0 °F 33% 29.92 in 10.0 mi Variable 5.8 mph - N/A   Clear
11:53 AM 93.0 °F 91.1 °F 55.0 °F 28% 29.91 in 10.0 mi ENE 5.8 mph - N/A   Clear
12:53 PM 96.1 °F - 52.0 °F 22% 29.89 in 10.0 mi Variable 4.6 mph - N/A   Clear
1:53 PM 98.1 °F 96.1 °F 54.0 °F 23% 29.87 in 10.0 mi Variable 6.9 mph - N/A   Clear
2:53 PM 100.0 °F - 51.1 °F 19% 29.85 in 10.0 mi ESE 5.8 mph - N/A   Clear
3:53 PM 102.0 °F 100.1 °F 54.0 °F 20% 29.83 in 10.0 mi ESE 11.5 mph - N/A   Clear
4:53 PM 100.0 °F 99.2 °F 57.0 °F 24% 29.82 in 10.0 mi East 10.4 mph - N/A   Clear
5:53 PM 99.0 °F 99.5 °F 61.0 °F 28% 29.80 in 10.0 mi ESE 9.2 mph - N/A   Clear
6:53 PM 93.9 °F 94.8 °F 62.1 °F 35% 29.80 in 10.0 mi East 6.9 mph - N/A   Clear
7:53 PM 89.1 °F 90.3 °F 64.0 °F 43% 29.79 in 10.0 mi East 6.9 mph - N/A   Clear
8:20 PM 86.0 °F 86.6 °F 62.6 °F 45% 30.00 in 6.0 mi WSW 35.7 mph 56.4 mph N/A Thunderstorm Haze
8:49 PM 77.0 °F - 57.2 °F 50% 30.01 in - WSW 29.9 mph 40.3 mph N/A Thunderstorm Thunderstorm
8:53 PM 78.1 °F - 57.0 °F 48% 29.87 in 10.0 mi WSW 34.5 mph 43.7 mph N/A Thunderstorm Thunderstorm
9:53 PM 79.0 °F - 55.9 °F 45% 29.94 in 10.0 mi WSW 15.0 mph 24.2 mph 0.00 in Rain , Thunderstorm Light Thunderstorms and Rain
10:24 PM 71.6 °F - 60.8 °F 69% 30.07 in 9.0 mi Calm Calm - 0.03 in Rain Light Rain
10:53 PM 71.1 °F - 62.1 °F 73% 29.93 in 10.0 mi East 15.0 mph - 0.06 in Rain Light Rain
11:53 PM 73.0 °F - 57.9 °F 59% 29.86 in 10.0 mi SE 10.4 mph 23.0 mph 0.01 in   Clear